DELTA 1 DEB, 7048

Orbit data source: Space-Track

DELTA 1 DEB, 7048 is space debris in LEO originally from a launch on Tue, 06 Nov 1973 UTC launched from the Air Force Western Test Range (AFWTR). Debris objects in space refer to the collection of defunct objects orbiting the Earth. Examples of debris include non-operational satellites, rocket bodies, and fragments generated from explosions, collisions, or faulty payload assembly.

Loading next visibility...
Identifier
7048, 1973-086AQ
Orbit
LEO
Country
Flag of USUS
Related business
Manufacturer
Unknown
Mission
Spacecraft
Bus & Motor
Unknown
Mass
Unknown
Launch date (UTC)
1973-11-06 (52 years ago)
Launch vehicle
Unknown
Launch site
Air Force Western Test Range (AFWTR)
Object type
Payload
Rocket body
Debris
Shape & HBR
Unknown shape, 0.2 m
Radar Cross Section
Medium (>0.1 m² and <1 m²)

Expand to show TLE details & history
Last TLE update: 1 day ago

TLE from 1 day ago
0 DELTA 1 DEB
1 07048U 73086AQ  25296.88454956  .00000032  00000-0  10747-2 0  9992
2 07048 101.6257 174.9503 0488007   9.7009  48.0236 11.50694305176432
Epoch: 2025-10-23T21:13Z
TLE epoch observation values (Epoch: 2025-10-23T21:13:45.081Z)
Latitude
60.00227°
Longitude
163.20254°
Altitude
1,660.371 km
Speed
7.158 km/s
True Right ascension
10h 16m 42s
True Declination
59° 52' 12"
Sunlit
Object was in daylight at epoch
Visualization orbit readout
Latitude
Unknown
Longitude
Unknown
Altitude
Unknown
Speed
Unknown
Apparent Right ascension
Unknown
Apparent Declination
Unknown
Sunlit
N/A
Visualization observer readout
Local Sidereal Time
17:36:51
Azimuth
Unknown
Elevation
Unknown
Doppler factor
Unknown
Orbital elements
Apogee altitude
2,311.449 km
Perigee altitude
1,502.796 km
Semi-major axis
8,285.259 km
Eccentricity
0.0488
Inclination
101.6257°
RAAN
174.9503°
Arg. of periapsis
9.7009°
True anomaly
52.35328°
Mean anomaly
48.0236°
Eccentric anomaly
50.17087°
Mean motion
2.87796 °/min
Orbital period
125.09 mins
BSTAR
0.0010747
Loading maneuver chart data...
Computing Atmospheric mass density...
Loading historical data...
Loading historical data...
Loading historical data...
Loading historical data...
Loading historical data...
Loading historical data...
Loading historical data...

Documentation

Showing up to 5 results
|